Dewpoint
51 51 52 52 52 52 52 52 52 51 51 50 50 50 50 51 53 54 54 53 52 53 53 51 50 44 24 13 13 17 38 33 30 46 46 42 37 38 36 40 38 36 32 28 26 25 23
51 50 51 51 52 52 52 51 51 51 50 50 49 49 50 50 51 54 55 54 51 51 51 51 48 35 15 12 18 20 22 23 25 41 45 44 41 40 39 38 36 36 29 27 27 24 25
50 50 51 51 51 52 52 51 51 50 50 49 49 49 49 49 50 52 53 52 52 52 52 42 45 11 12 12 18 20 21 23 26 37 41 39 43 40 39 35 35 32 28 24 19 23 18
49 49 50 51 51 51 51 51 50 50 49 48 48 48 49 47 48 50 52 50 50 49 49 43 32 13 10 18 19 19 21 22 22 23 21 22 24 25 30 28 22 30 29 26 20 15 16
49 49 49 50 50 50 50 50 50 49 48 48 48 48 48 45 47 52 52 49 45 44 37 30 15 11 5 22 11 17 20 18 18 20 22 18 20 20 26 28 21 19 17 13 11 13 7
49 49 49 49 49 50 50 49 49 49 48 48 48 48 48 45 47 48 47 42 38 36 20 9 9 8 8 9 14 17 17 18 18 18 20 21 17 9 13 14 0 8 2 4 2 8 6
49 48 48 49 49 49 49 49 49 49 48 48 48 47 46 45 45 43 38 31 20 15 16 11 10 9 9 15 15 16 19 14 15 15 10 14 4 6 10 13 15 14 6 -17 3 9 6
50 49 49 49 48 49 49 48 48 48 47 47 47 46 46 43 43 41 34 21 20 21 10 14 12 11 13 16 7 14 15 10 14 9 11 6 0 2 5 6 6 7 5 5 2 6 3
51 50 49 49 48 48 48 47 47 47 47 47 47 45 48 39 37 34 33 30 36 30 11 11 13 11 13 14 14 15 13 9 9 8 8 5 4 5 -4 -0 -1 1 2 0 -4 4 7
52 50 49 49 48 48 47 47 47 47 46 46 46 42 47 41 29 28 31 33 41 34 7 8 8 11 13 14 12 18 17 7 7 7 5 7 11 1 -6 -2 4 -1 2 5 4 4 0
53 51 50 50 49 48 47 46 46 46 46 46 45 41 39 37 24 20 30 36 41 30 11 9 9 14 15 10 12 13 17 7 2 3 -1 -1 1 -2 -5 -1 4 1 7 8 8 5 5
54 53 51 50 50 48 47 46 45 45 45 45 45 38 35 26 33 29 36 40 36 14 20 7 10 7 5 11 14 13 11 12 9 3 2 3 7 2 -0 4 6 11 8 7 7 7 7
56 54 52 51 50 49 47 46 44 44 43 45 41 37 29 24 28 36 40 33 7 7 7 5 6 8 5 5 11 10 7 4 1 1 -3 3 3 5 8 2 8 10 2 1 -4 4 -3
57 55 54 52 50 49 47 45 44 43 43 44 43 32 30 26 32 40 31 18 -3 2 2 9 9 8 1 4 11 13 8 2 8 5 0 3 1 2 7 5 3 7 8 3 -3 -8 -7
57 56 54 52 51 49 47 45 44 43 44 45 36 27 26 29 35 31 19 2 -6 2 9 7 8 3 5 7 5 11 10 5 6 8 7 1 -4 8 8 9 9 7 1 9 6 4 -2
57 56 54 52 52 50 47 45 44 42 44 43 30 23 25 30 32 26 15 2 1 13 11 8 -4 0 -1 6 0 9 6 11 9 10 8 8 4 5 8 9 6 11 11 7 5 -6 -6
58 56 55 53 52 50 47 45 43 41 45 39 29 22 23 31 27 18 8 3 12 15 12 5 1 0 -0 6 1 2 4 12 10 11 9 3 2 4 9 6 3 3 7 4 7 4 -2
58 57 55 53 52 50 48 45 43 43 44 32 26 17 27 28 14 14 9 9 17 15 16 13 10 8 6 5 3 1 4 9 13 13 9 10 9 2 2 2 2 3 7 9 -2 -2 1
58 57 55 53 52 50 47 45 43 43 41 30 20 20 29 23 24 13 15 14 16 15 14 13 11 11 9 5 11 4 10 10 10 10 11 15 6 -2 -2 4 5 4 5 4 2 4 1
57 57 54 53 52 50 47 45 43 41 39 32 30 26 20 20 16 9 13 14 12 17 15 16 11 10 8 4 6 14 9 6 8 8 16 16 10 8 -2 -0 6 6 3 -0 5 3 -0
56 56 54 54 52 49 47 45 42 40 40 35 33 30 21 21 11 13 17 17 13 14 15 14 13 12 17 13 4 7 8 6 7 12 7 11 6 4 4 1 4 6 4 1 2 3 -4
54 56 55 53 52 49 47 44 41 40 40 38 31 30 26 23 18 16 18 23 14 18 19 15 16 16 16 15 12 11 12 10 8 3 4 -0 5 1 -1 -4 2 4 5 5 4 4 2
50 54 55 54 52 49 47 45 43 42 40 37 33 29 33 31 18 26 25 24 23 21 23 17 20 18 12 7 7 10 10 10 12 9 6 2 1 -1 -5 -7 -5 -5 -2 2 3 4 5
47 51 54 54 52 50 47 45 43 43 41 38 35 34 30 25 21 20 17 17 15 18 20 17 19 18 9 6 9 10 9 4 3 0 4 -1 1 -2 -2 -6 -14 -1 -6 2 3 4 5
46 48 51 54 52 50 47 46 44 42 41 36 34 33 32 28 22 20 15 18 20 20 18 15 14 13 9 14 11 7 6 7 4 -0 -2 2 2 -4 -2 -5 -4 -7 -6 -2 -1 2 6
46 49 50 52 52 50 48 46 44 42 43 37 36 36 34 27 24 24 20 19 20 18 15 14 14 13 16 14 10 2 -3 -3 2 2 -6 -1 1 3 -8 -8 -12 -2 -8 -2 -1 -4 2
46 48 51 51 52 50 48 46 44 42 44 37 32 33 34 27 24 22 21 20 20 20 14 12 12 14 16 13 7 5 2 2 1 2 -2 -2 -3 -4 -6 -5 -2 1 -1 -8 -4 -1 -5
46 47 50 52 52 49 48 46 43 42 42 37 28 32 34 28 19 18 18 19 18 19 16 15 13 13 13 11 9 5 5 1 -1 3 -0 -0 -1 -4 -3 -6 -8 -6 -11 -3 -4 -3 -5
46 49 50 52 52 49 48 45 44 43 41 36 27 28 23 22 18 15 16 16 17 17 18 17 15 14 17 13 13 11 4 -2 -2 -6 -5 -3 4 0 1 -1 -4 -3 -2 -5 -7 -3 -3
Lifted_Index
12 12 12 12 12 12 12 12 12 12 13 13 13 13 13 12 10 9 9 9 10 10 10 11 12 14 14 13 15 17 17 14 11 9 9 9 9 9 9 9 9 10 10 10 11 11 11
12 12 12 12 12 12 12 12 12 13 13 13 14 14 13 13 11 10 9 9 10 10 11 12 13 14 13 13 16 18 17 14 11 10 9 9 9 9 9 9 9 10 10 11 11 11 11
12 12 12 12 12 12 12 12 12 13 13 13 14 14 14 13 12 11 10 10 10 11 11 13 15 15 14 15 18 19 16 14 11 10 9 9 9 9 9 10 10 10 10 10 11 12 12
12 12 12 12 12 12 12 12 12 13 13 14 14 14 14 14 13 12 11 11 12 12 13 14 16 15 15 17 18 18 16 13 11 10 10 10 10 10 10 10 9 9 8 8 10 12 13
12 12 12 12 12 12 12 12 13 13 14 14 14 14 14 14 14 13 13 13 13 13 15 15 16 15 15 17 18 17 14 13 11 11 11 11 11 11 10 9 7 6 6 6 9 12 13
12 12 12 12 12 12 12 12 13 13 14 14 14 14 15 15 15 14 15 15 14 14 15 15 14 14 15 16 17 16 14 12 12 12 11 12 11 10 9 8 6 6 6 6 9 11 13
12 12 12 12 12 12 12 13 13 13 14 14 14 15 15 15 16 16 16 15 15 14 14 14 14 14 15 17 17 16 14 12 12 11 11 11 9 9 9 9 8 7 7 7 9 12 12
11 12 12 12 12 12 13 13 13 13 14 15 15 15 15 16 17 17 16 16 16 15 13 13 14 15 16 17 16 15 14 13 12 10 10 9 9 10 11 11 10 8 7 7 10 12 13
8 10 12 12 12 13 13 13 13 14 14 15 15 15 16 17 18 17 17 16 17 15 12 12 14 15 16 16 15 15 15 14 12 10 9 9 10 12 11 10 9 8 8 8 10 11 12
7 8 10 12 12 13 13 13 13 14 14 15 15 16 16 17 17 16 16 17 17 14 10 9 12 15 16 15 14 16 17 15 12 10 9 10 11 11 11 10 10 9 11 11 10 9 8
5 6 8 10 12 13 13 14 14 14 14 15 15 17 17 17 16 16 16 16 15 11 7 7 11 14 14 13 13 15 17 16 13 11 11 11 12 12 11 12 12 12 13 13 11 9 7
4 5 6 8 11 13 13 14 14 14 14 15 16 17 18 17 16 16 16 15 12 7 5 6 9 10 11 11 12 13 14 15 13 11 10 11 13 14 14 14 14 14 12 11 9 7 5
3 4 5 7 9 12 13 14 14 14 14 15 16 17 18 17 16 16 15 12 7 4 4 5 7 8 8 8 9 10 11 11 10 9 8 9 11 14 15 14 14 13 10 7 4 3 2
2 3 4 5 8 11 13 14 14 14 13 14 16 17 17 17 16 15 13 9 4 4 5 6 7 7 7 7 8 9 8 8 9 8 7 6 8 12 15 15 13 12 10 6 3 2 3
1 2 3 4 6 9 12 13 14 13 13 14 15 15 15 16 16 14 10 6 4 5 7 7 7 6 6 7 8 8 8 8 10 10 9 7 8 12 16 16 15 13 11 9 6 4 3
1 1 2 3 5 7 10 12 14 13 13 13 11 10 12 15 15 12 7 4 4 7 8 7 6 6 6 7 7 8 8 9 11 12 12 10 9 12 15 16 15 13 12 10 8 5 3
1 2 2 3 3 4 7 10 13 13 12 11 8 7 11 14 13 9 5 3 5 7 8 7 6 7 7 7 8 8 9 10 12 13 13 12 10 11 13 14 14 14 12 11 9 6 4
2 2 2 2 3 3 5 8 11 12 11 8 6 7 12 13 9 6 4 4 5 6 6 6 7 8 9 9 8 9 9 11 14 14 13 13 11 9 10 13 15 14 12 11 10 8 7
3 3 2 2 2 3 4 6 8 10 9 7 4 6 10 10 6 4 3 4 5 5 5 6 8 9 10 10 9 10 11 13 15 15 14 14 11 8 9 12 14 13 12 12 10 9 7
3 3 2 2 2 2 3 4 7 9 9 6 4 4 6 7 5 4 3 3 4 5 7 7 8 10 10 10 10 11 12 14 15 16 16 15 12 9 9 11 12 12 12 11 10 8 7
4 3 2 2 2 2 3 4 7 9 9 6 4 3 3 4 4 4 4 3 3 5 7 8 8 9 9 9 10 12 12 13 15 16 16 15 13 11 11 12 12 12 11 10 9 8 7
5 4 3 3 3 3 3 4 6 8 8 6 4 4 4 4 3 3 4 4 4 5 7 7 8 9 10 10 12 13 14 14 15 15 15 15 13 12 12 12 12 11 10 9 8 7 7
6 5 4 4 4 4 4 4 6 8 8 7 6 6 5 4 4 4 4 4 5 6 8 9 10 11 12 14 15 16 16 16 16 16 15 14 13 11 11 11 11 10 9 8 8 7 6
7 6 5 5 5 5 5 5 6 8 8 8 7 7 6 5 4 4 4 5 6 7 9 11 12 13 15 16 17 17 17 17 17 17 16 15 13 11 10 10 9 9 10 8 7 6 6
8 7 6 5 5 5 5 6 7 8 9 9 9 8 6 5 5 5 5 6 7 8 10 12 14 16 17 17 16 14 13 14 15 16 16 15 13 11 10 8 8 9 10 9 7 7 6
8 7 6 5 5 5 5 6 8 9 10 10 10 10 8 7 6 7 6 7 8 9 10 13 15 17 18 16 13 10 10 12 13 14 15 14 13 11 9 8 8 9 10 9 7 6 6
8 6 5 5 5 5 5 7 8 10 12 11 12 12 11 8 9 10 9 9 10 10 11 13 15 16 17 15 13 11 11 12 12 12 12 12 11 10 9 8 8 9 9 9 7 6 7
8 6 4 4 4 5 5 7 9 11 12 12 12 13 12 11 11 13 14 13 14 13 13 14 15 16 16 14 13 13 13 13 12 11 11 11 10 9 9 8 8 9 9 8 8 7 8
8 6 4 3 3 5 6 7 10 11 12 12 12 14 14 12 13 15 17 16 16 15 14 15 16 16 16 15 14 14 13 13 13 12 11 11 10 9 8 8 8 9 9 9 9 8 8